DW3648 Granada ES current weather conditions

sailwx.info

Wind from 268 at 1 knots gusting 5

Air temperature 12.2° C
Dewpoint 9.4° C

Last reported at 2020-Feb-18 23:45 UTC.
Time now 2020-Feb-19 00:46 UTC

Location: N 37°10' W 003°35'.
View on Google Maps.

See reports from other nearby stations

  
Tides and Currents Weather Stations Pressure Air Temp Water Temp Dewpoint Dewpoint Depression Visibility Wind Speed Wind Dir Waves Ship Positions
date/time (UTC)wind fromknots sea level pressurealtimeterstation pressurevisibilityair tempwater tempwave heightnotes
2020-Feb-18 23:45 268 1 gusting 5 12.2
2020-Feb-18 23:30 287 12.2
2020-Feb-18 23:15 288 12.8
2020-Feb-18 22:46 276 12.8
2020-Feb-18 22:30 276 12.8
2020-Feb-18 22:15 276 12.8
2020-Feb-18 21:45 276 12.8
2020-Feb-18 21:30 276 1 gusting 3 12.8
2020-Feb-18 21:15 276 13.3
2020-Feb-18 20:45 289 13.3
2020-Feb-18 20:30 289 13.3
2020-Feb-18 20:15 289 13.3
2020-Feb-18 19:45 288 13.9
2020-Feb-18 19:30 277 13.9
2020-Feb-18 19:15 277 13.9
2020-Feb-18 18:45 277 14.4
2020-Feb-18 18:30 186 14.4
2020-Feb-18 18:15 207 15.0
2020-Feb-18 17:46 219 16.1
2020-Feb-18 17:31 252 0 gusting 3 16.1
2020-Feb-18 17:16 210 16.7
2020-Feb-18 16:45 250 1 gusting 6 16.7
2020-Feb-18 16:30 237 2 gusting 6 17.8
2020-Feb-18 16:15 257 18.9
2020-Feb-18 15:45 242 0 gusting 6 19.4
2020-Feb-18 15:30 279 19.4
2020-Feb-18 15:15 230 2 gusting 9 19.4
2020-Feb-18 14:45 284 1 gusting 5 18.9
2020-Feb-18 14:30 263 2 gusting 6 19.4
2020-Feb-18 14:15 216 3 gusting 8 18.9
2020-Feb-18 13:45 310 0 gusting 6 18.9
2020-Feb-18 13:30 281 0 gusting 5 18.3
2020-Feb-18 12:45 203 18.9
2020-Feb-18 12:31 269 2 gusting 6 18.3
2020-Feb-18 12:16 266 2 gusting 6 18.3
2020-Feb-18 11:46 271 18.3
2020-Feb-18 11:31 273 17.2
2020-Feb-18 11:16 300 1 gusting 4 16.1
2020-Feb-18 10:46 274 1 gusting 4 15.6
2020-Feb-18 10:31 228 1 gusting 5 15.6
2020-Feb-18 10:17 233 15.6
2020-Feb-18 09:45 258 14.4
2020-Feb-18 09:30 184 13.9
2020-Feb-18 09:15 184 13.3
2020-Feb-18 08:45 086 12.2
2020-Feb-18 08:31 086 10.6
2020-Feb-18 08:16 086 10.0
2020-Feb-18 07:45 086 8.3
2020-Feb-18 07:30 110 7.8
2020-Feb-18 07:16 110 7.2
2020-Feb-18 06:45 098 7.2
2020-Feb-18 06:30 098 7.2
2020-Feb-18 06:15 098 7.2
2020-Feb-18 05:45 107 0 gusting 3 7.2
2020-Feb-18 05:30 111 0 gusting 6 7.2
2020-Feb-18 05:15 111 7.8
2020-Feb-18 04:45 111 7.8
2020-Feb-18 04:30 111 7.8
2020-Feb-18 04:16 111 8.3
2020-Feb-18 03:45 111 0 gusting 2 8.3
2020-Feb-18 03:30 104 0 gusting 6 8.3
2020-Feb-18 03:15 110 2 gusting 4 8.3
2020-Feb-18 02:45 128 8.3
2020-Feb-18 02:30 097 2 gusting 6 7.8
2020-Feb-18 02:16 109 0 gusting 6 7.8
2020-Feb-18 01:48 106 1 gusting 3 8.3
2020-Feb-18 01:31 100 1 gusting 4 8.9
2020-Feb-18 01:17 098 0 gusting 2 8.9
2020-Feb-18 00:46 098 0 gusting 4 8.9
2020-Feb-18 00:31 102 0 gusting 6 8.9
2020-Feb-18 00:16 101 8.9
2020-Feb-17 23:47 115 3 gusting 6 9.4
2020-Feb-17 23:31 113 9.4
2020-Feb-17 23:16 105 1 gusting 4 10.0
2020-Feb-17 22:47 112 10.6
2020-Feb-17 22:31 112 10.6
2020-Feb-17 22:16 112 1 gusting 4 10.6
2020-Feb-17 21:46 091 0 gusting 4 11.7
2020-Feb-17 21:31 091 1 gusting 5 11.7
2020-Feb-17 21:16 092 12.2
2020-Feb-17 20:46 091 0 gusting 5 12.8
2020-Feb-17 20:31 115 0 gusting 3 12.8
2020-Feb-17 20:16 105 1 gusting 2 13.3
2020-Feb-17 19:46 093 1 gusting 4 13.9
2020-Feb-17 19:30 092 3 gusting 6 14.4
2020-Feb-17 19:16 268 0 gusting 3 15.0
2020-Feb-17 18:46 269 16.1
2020-Feb-17 18:30 270 16.7
2020-Feb-17 18:16 271 16.7
2020-Feb-17 17:46 285 3 gusting 6 18.3
2020-Feb-17 17:31 284 1 gusting 6 18.9
2020-Feb-17 17:16 331 1 gusting 6 19.4
2020-Feb-17 16:46 273 2 gusting 7 20.6
2020-Feb-17 16:32 266 1 gusting 6 21.1
2020-Feb-17 15:45 250 1 gusting 6 21.1
2020-Feb-17 15:31 273 0 gusting 5 21.1
2020-Feb-17 15:15 273 0 gusting 5 20.6
2020-Feb-17 14:45 298 1 gusting 4 20.6
2020-Feb-17 14:30 347 3 gusting 5 20.6
2020-Feb-17 14:15 244 1 gusting 6 20.6
2020-Feb-17 13:45 272 0 gusting 4 19.4
2020-Feb-17 13:30 315 1 gusting 5 18.9
2020-Feb-17 13:15 248 1 gusting 5 18.3
2020-Feb-17 12:45 221 0 gusting 4 17.8
2020-Feb-17 12:30 263 17.8
2020-Feb-17 12:15 261 2 gusting 5 17.2
2020-Feb-17 11:46 096 0 gusting 2 16.7
2020-Feb-17 11:30 251 15.6
2020-Feb-17 11:15 257 1 gusting 3 15.6
2020-Feb-17 10:47 252 0 gusting 3 14.4
2020-Feb-17 10:31 253 0 gusting 4 13.9
2020-Feb-17 10:15 254 0 gusting 3 13.9
2020-Feb-17 09:46 233 1 gusting 4 11.7
2020-Feb-17 09:31 270 1 gusting 5 11.7
2020-Feb-17 09:16 107 11.7
2020-Feb-17 08:47 106 0 gusting 2 8.9
2020-Feb-17 08:31 103 2 gusting 6 8.3
2020-Feb-17 08:16 111 1 gusting 3 8.3
2020-Feb-17 07:46 109 0 gusting 4 6.7
2020-Feb-17 07:31 103 1 gusting 6 6.1
2020-Feb-17 07:17 078 0 gusting 2 6.1
2020-Feb-17 06:46 078 6.7
2020-Feb-17 06:30 078 6.7
2020-Feb-17 06:16 078 6.7
2020-Feb-17 05:45 078 6.7
2020-Feb-17 05:30 078 6.7
2020-Feb-17 05:16 078 6.7
2020-Feb-17 04:46 078 7.2
2020-Feb-17 04:30 078 7.2
2020-Feb-17 04:15 078 7.2
2020-Feb-17 03:46 127 1 gusting 5 7.2
2020-Feb-17 03:30 123 3 gusting 6 7.8
2020-Feb-17 03:15 113 2 gusting 6 7.8
2020-Feb-17 02:45 109 8.3
2020-Feb-17 02:30 109 8.3
2020-Feb-17 02:15 109 8.9
2020-Feb-17 01:45 108 8.9
2020-Feb-17 01:30 109 9.4
2020-Feb-17 01:17 109 9.4
2020-Feb-17 01:02 109 10.0
2020-Feb-17 00:47 109 10.0
2020-Feb-17 00:31 087 10.0
2020-Feb-17 00:16 086 10.0
2020-Feb-17 00:02 087 10.6